Location: LDNL
(36.4545°S, 141.6685°E)
Time: 04:44:13
(UTC+11:00)

A-11 Canister half - Pass Details

Date: 16 August 2022
Orbit: 1524 x 1684 km, 47.3° (Epoch: 05 October)

Event Time Altitude Azimuth Distance (km) Brightness Sun altitude
Rises 19:51:35 0° 254° (WSW) 4,695 12.8 -22.8°
Reaches altitude 10° 19:54:53 10° 246° (WSW) 3,708 11.9 -23.5°
Maximum altitude 20:03:40 43° 176° (S) 2,046 9.5 -25.3°
Enters shadow 20:07:16 32° 131° (SE) 2,413 9.6 -26.0°
Drops below altitude 10° 20:12:33 10° 106° (ESE) 3,745 - -27.1°
Sets 20:15:54 0° 99° (E) 4,745 - -27.7°
